WELCOME TO TCFT

Voted One Of The Best Flight Schools In The USA

 

 

BECOME AN AIRLINE PILOT

Treasure Coast Flight Training is committed to serving all of your aviation needs as a full service flight academy, aircraft rental facility, and pilot shop

 

 

Questions About Becoming An Airline Pilot?

 

 

What Our Graduates Say

 

 

The training I received with Treasure Coast Flight Training prepared me to become a professional pilot

 

Nathan Meisner

Pilot - Cessna Caravan - USA

Professional yet relaxed environment. Truly an enjoyable experience to fly with TCFT

 

Sophia

Certified Flight Instructor - China

The training I needed to get me to where I am now!

 

Enderson Rafael

Pilot - Go Airlines - Brazil

Thank you TCFT for making me an airline pilot!

 

Kyle Barrett

Pilot - GoJet Airlines - USA

Current Conditions

 

Metar

 

KSUA 231950Z 150010KT 7SM BKN040 28/23 A2998

 

TAF

 

TAF KSUA 231732Z 2318/2418 15011G14KT P6SM VCSH SCT025 BKN040 FM231900 15013KT P6SM VCTS SCT030CB BKN040 TEMPO 2319/2322 2SM TSRA BKN025CB FM240000 17007KT P6SM VCSH SCT025 BKN035 OVC060 TEMPO 2400/2403 3SM SHRA BKN020 FM240900 24003KT P6SM FEW015 SCT060 BKN250

 

 

Look No Further. Get Started Today